This is the latest recevied weather packets stored in our database for station/object JF2ZGN-13. If no packets are shown the sender has not sent any weather packets the latest 10 day(s).
| Time | Temp. | Humidity | Pressure | Rain* | Wind** | Luminosity | Snow |
|---|---|---|---|---|---|---|---|
| 1787511883 | 19.44° C | 52% | 911.9 hPa | 0 mm | - | - | - |
| 1787511282 | 19.44° C | 50% | 912.2 hPa | 0 mm | - | - | - |
| 1787510682 | 19.44° C | 44% | 912.3 hPa | 0 mm | - | - | - |
| 1787510082 | 19.44° C | 50% | 912.3 hPa | 0 mm | - | - | - |
| 1787509481 | 19.44° C | 53% | 912.4 hPa | 0 mm | - | - | - |
| 1787508881 | 19.44° C | 56% | 912.3 hPa | 0 mm | - | - | - |
| 1787508280 | 19.44° C | 56% | 912.3 hPa | 0 mm | - | - | - |
| 1787507679 | 19.44° C | 56% | 912.4 hPa | 0 mm | - | - | - |
| 1787507079 | 19.44° C | 56% | 912.4 hPa | 0 mm | - | - | - |
| 1787506478 | 19.44° C | 57% | 912.4 hPa | 0 mm | - | - | - |
| 1787505879 | 20° C | 55% | 912.4 hPa | 0 mm | - | - | - |
| 1787505278 | 20° C | 56% | 912.4 hPa | 0 mm | - | - | - |
| 1787504678 | 20° C | 55% | 912.5 hPa | 0 mm | - | - | - |
| 1787504077 | 20° C | 54% | 912.5 hPa | 0 mm | - | - | - |
| 1787503477 | 20° C | 53% | 912.6 hPa | 0 mm | - | - | - |
| 1787502876 | 20° C | 53% | 912.6 hPa | 0 mm | - | - | - |
| 1787502275 | 20° C | 53% | 912.7 hPa | 0 mm | - | - | - |
| 1787501675 | 20° C | 54% | 912.8 hPa | 0 mm | - | - | - |
| 1787501075 | 20° C | 54% | 912.9 hPa | 0 mm | - | - | - |
| 1787500474 | 20° C | 55% | 913.1 hPa | 0 mm | - | - | - |
| 1787499874 | 20° C | 55% | 913.1 hPa | 0 mm | - | - | - |
| 1787499273 | 20° C | 55% | 913.3 hPa | 0 mm | - | - | - |
| 1787498672 | 19.44° C | 55% | 913.3 hPa | 0 mm | - | - | - |
| 1787498072 | 20° C | 57% | 913.5 hPa | 0 mm | - | - | - |
| 1787497472 | 20° C | 57% | 913.5 hPa | 0 mm | - | - | - |
* Rain since midnight (hover to see other rain measurements)
** Current wind speed in m/s (hover to see current wind gust speed)